GFSNGP_sfc_temp_159.txt.gz
Temp
83 82 83 83 82 83 79 81 75 78 78 81 83 84 86 87 85 83 83 83 82 80 79 79 78 81 82 82 83 84 79 84 83 87 86 84 81 87 90 89 89 88 87 88
76 85 83 80 83 83 83 82 81 82 79 90 89 89 87 85 84 83 83 83 81 79 80 75 78 78 80 80 80 79 80 83 83 84 84 85 85 84 85 85 86 86 87 87
68 78 81 73 81 83 83 85 84 77 83 89 83 84 85 84 84 83 83 84 82 81 79 75 69 75 75 78 79 77 78 78 82 81 82 83 84 83 82 81 82 83 85 86
71 74 61 80 90 87 84 86 88 86 86 85 86 88 88 89 86 84 85 84 83 82 79 79 77 69 70 72 72 73 73 71 75 79 80 82 81 80 81 79 79 81 82 84
66 68 71 75 83 83 81 79 89 87 88 87 86 87 84 89 89 88 87 86 85 84 81 79 78 77 72 70 68 72 67 68 74 73 79 79 78 79 80 78 78 79 80 80
69 64 55 72 89 92 89 73 89 89 88 84 84 76 84 87 88 88 85 85 79 82 82 81 80 80 76 72 70 69 68 69 69 71 74 76 77 78 76 78 75 71 70 74
68 64 71 84 89 91 70 74 90 91 89 86 81 84 85 88 86 86 80 81 80 79 75 74 79 80 77 77 77 77 77 73 70 69 70 71 72 74 75 74 70 70 70 69
72 66 62 89 88 77 84 89 90 89 90 86 86 84 84 85 85 84 82 82 84 81 81 81 81 79 77 75 77 79 79 77 75 72 71 72 74 74 72 70 70 67 64 62
74 75 84 87 86 92 94 90 89 89 90 88 85 83 83 83 83 83 83 83 86 83 80 80 78 78 76 74 74 74 72 70 67 67 67 68 67 67 66 66 65 63 62 60
76 80 84 88 93 93 93 92 92 93 91 89 85 85 83 83 83 83 83 81 83 82 79 77 78 74 75 75 74 72 68 68 67 64 67 69 71 71 70 68 67 66 67 66
76 79 85 88 91 91 91 92 92 92 90 88 87 85 85 83 82 83 81 81 81 79 78 76 74 70 72 71 72 67 66 70 72 72 68 64 64 65 71 62 60 67 69 69
73 77 79 83 88 91 88 88 90 88 87 88 87 85 85 83 83 82 80 80 78 78 77 77 71 74 71 71 70 67 62 66 72 75 75 72 67 65 48 48 45 44 46 59
75 80 83 87 90 91 89 89 90 89 88 86 87 86 85 83 82 75 81 80 79 78 77 77 72 71 72 70 69 68 67 70 74 73 76 72 71 69 67 56 46 45 44 45
81 79 78 86 84 89 90 90 84 90 89 88 87 87 86 83 79 80 80 81 80 79 78 71 76 73 74 72 69 68 72 60 69 71 71 70 71 73 72 70 69 68 50 52
78 81 85 88 86 87 88 88 87 86 86 86 87 85 84 81 79 79 81 81 80 80 79 76 72 72 74 74 73 72 70 72 73 74 74 72 72 74 74 72 70 69 67 54
79 83 83 84 84 87 88 86 85 84 85 85 85 84 84 83 81 81 80 80 77 77 78 77 72 77 77 75 74 74 73 65 67 74 74 75 76 77 72 74 72 70 71 75
74 76 79 82 84 84 85 88 87 85 85 85 84 84 83 82 81 79 79 81 79 79 79 78 77 79 78 78 78 73 81 77 72 77 75 80 81 81 81 81 80 79 79 68
79 81 84 83 84 85 85 87 87 86 85 86 85 84 82 80 78 77 78 79 79 79 80 79 79 80 80 81 83 84 84 82 82 84 83 81 83 83 82 82 82 81 79 72
79 80 82 84 85 86 85 84 86 87 86 86 84 82 82 81 80 79 79 78 77 75 78 81 69 74 79 78 77 85 86 84 84 84 83 73 81 84 84 84 83 83 83 79
80 81 82 84 85 86 85 81 81 86 87 86 85 83 80 81 80 79 78 76 79 82 81 81 78 79 81 78 72 83 86 85 84 83 82 82 83 83 84 70 79 84 83 83
79 80 80 81 81 84 84 87 87 86 86 86 83 81 81 81 81 79 76 78 80 79 81 70 80 82 83 81 79 83 86 85 84 83 83 81 82 82 83 84 83 82 83 84
80 80 79 81 81 83 87 87 86 85 84 84 84 83 81 80 80 80 81 81 84 63 80 82 83 75 81 72 83 85 86 86 85 84 84 84 83 83 83 84 83 84 84 84
80 81 82 82 83 84 85 85 84 84 83 82 82 82 82 85 85 82 79 84 87 72 85 86 74 64 64 82 84 85 86 85 84 84 84 84 84 83 84 84 84 83 83 83
80 80 83 86 87 84 81 83 85 82 82 83 84 84 84 86 87 90 90 76 70 71 84 84 73 62 61 83 82 83 84 84 83 83 83 66 83 84 84 84 84 85 84 80
80 82 83 84 83 84 84 85 84 84 81 80 82 84 85 89 89 91 91 90 64 75 85 62 61 59 79 83 84 84 83 83 83 82 83 82 83 81 82 83 83 83 83 81
78 81 84 82 85 86 87 86 84 86 84 82 84 86 89 91 92 91 91 82 84 75 87 84 82 80 84 85 85 86 85 84 83 83 80 83 78 78 80 79 79 77 83 83
79 63 81 81 83 85 87 85 85 85 84 87 85 88 89 90 88 85 80 88 87 85 87 87 85 79 85 86 86 86 85 79 67 76 78 73 67 78 83 77 75 80 83 80

GFSNGP_sfc_temp_162.txt.gz
Temp
81 79 73 71 77 80 79 80 74 71 72 78 80 82 84 85 85 84 83 83 81 81 80 77 77 80 80 82 81 85 82 80 75 76 76 80 81 80 83 81 81 82 82 82
75 81 79 71 74 73 83 82 81 82 76 84 85 83 85 84 84 82 83 83 82 81 77 76 77 79 80 80 79 78 77 78 72 71 67 67 69 79 81 81 81 80 81 81
68 78 69 53 67 80 84 84 83 75 82 85 84 84 85 84 84 83 83 83 82 79 78 76 74 77 77 78 79 77 76 78 74 72 68 71 72 78 79 78 79 80 81 80
69 72 60 76 81 84 85 86 88 87 84 86 85 88 89 89 86 84 85 81 81 80 78 77 77 74 71 76 74 74 71 71 71 71 74 77 78 78 79 78 76 76 77 79
64 63 72 77 78 82 80 80 89 87 88 88 88 88 85 91 90 87 86 83 81 81 79 79 78 77 75 72 70 69 67 68 69 68 68 69 71 75 78 78 78 78 77 77
69 62 56 74 84 82 81 70 89 89 89 85 85 76 82 89 91 90 85 84 82 81 80 79 77 77 76 74 74 69 71 71 68 69 69 69 69 72 76 75 74 74 72 71
68 66 69 81 84 79 57 65 89 91 90 85 81 82 85 88 88 87 84 81 84 83 80 81 79 80 76 76 75 76 75 74 72 71 70 70 69 70 73 74 73 72 69 67
71 65 62 83 83 71 74 83 90 90 89 85 84 84 85 85 81 81 81 80 82 78 78 79 80 78 76 76 75 78 77 76 74 73 70 69 69 69 71 71 69 67 66 64
73 74 81 85 79 81 86 87 89 89 91 86 83 83 84 83 82 81 82 82 81 81 78 79 78 78 75 74 75 74 73 70 68 69 69 68 68 67 66 66 65 63 63 63
69 78 80 86 85 88 91 89 91 92 91 89 84 84 83 83 82 81 82 82 83 80 78 76 76 76 74 75 74 73 69 68 67 66 66 67 66 66 65 64 64 64 63 63
61 75 76 80 88 82 88 92 91 93 91 88 86 83 83 82 81 81 80 81 81 79 78 76 76 74 75 73 71 69 69 69 69 69 67 62 60 58 67 58 56 66 65 67
50 59 62 69 75 75 86 89 90 89 88 89 87 84 84 81 81 80 79 79 78 77 77 75 74 70 70 73 72 68 65 70 71 70 71 69 64 61 48 48 46 45 46 59
55 65 61 68 72 71 86 89 90 89 87 86 87 86 84 81 81 75 79 74 73 75 76 75 74 71 70 70 71 69 69 71 70 68 69 68 69 68 64 55 46 45 44 45
63 58 56 63 70 90 90 91 84 90 89 88 87 87 85 82 78 80 80 80 80 79 76 76 70 71 71 73 71 69 71 61 72 73 71 68 69 70 69 68 67 64 49 52
72 74 76 77 77 89 90 89 87 86 86 85 86 85 84 79 78 79 81 80 79 79 75 75 74 71 72 74 71 71 72 71 70 72 72 70 70 73 72 71 69 65 61 53
72 73 75 78 76 86 86 86 85 84 85 85 84 83 83 81 80 80 80 79 76 76 76 74 74 74 74 74 73 74 73 68 68 73 74 74 73 71 70 69 69 69 69 69
62 60 72 79 68 82 84 86 86 85 84 83 82 82 82 80 79 78 77 79 78 77 77 74 74 75 74 76 77 76 76 75 71 74 74 76 75 75 73 73 73 74 74 66
69 69 78 80 83 85 85 86 86 85 83 83 81 81 80 78 75 75 77 77 78 77 78 78 76 77 76 78 78 78 77 78 77 76 77 76 79 80 79 80 79 77 74 68
76 77 81 82 80 82 84 85 84 84 83 81 80 78 79 78 76 77 78 76 75 74 76 79 70 75 78 78 75 83 84 82 81 82 80 73 79 81 81 81 80 80 77 74
75 80 81 80 85 70 67 73 87 84 83 82 80 78 77 78 77 77 77 74 76 79 79 78 77 77 79 77 73 81 83 84 83 82 80 80 80 80 81 70 77 81 80 77
77 79 80 81 83 85 78 71 64 65 64 81 79 77 77 78 78 77 74 75 78 78 79 69 78 79 80 79 78 80 82 83 83 82 80 79 79 81 81 81 80 80 81 81
78 79 80 81 82 83 72 70 66 64 62 63 80 80 78 78 77 77 78 78 81 64 78 78 80 75 80 72 81 82 83 84 83 83 82 81 80 80 80 80 81 81 80 80
78 79 81 82 82 83 73 69 64 64 64 64 78 79 79 82 82 79 76 81 83 71 82 82 73 65 65 80 81 81 83 83 83 83 82 82 82 82 81 81 82 81 81 80
74 74 81 83 84 83 80 80 78 74 74 81 83 82 83 83 84 87 87 76 70 67 81 81 69 62 64 80 80 80 81 82 81 80 81 66 81 81 82 82 82 82 82 77
80 81 81 80 73 82 82 83 83 82 81 81 81 82 83 87 85 86 84 87 65 72 81 62 61 61 77 81 81 81 80 80 81 81 81 81 81 80 80 81 81 81 81 82
79 80 72 62 77 86 85 85 84 85 83 82 83 84 85 87 88 87 85 70 76 74 84 78 76 75 81 82 83 82 82 82 81 80 78 81 79 75 74 67 65 67 78 80
79 62 78 82 85 85 84 79 84 84 83 85 82 83 85 87 87 82 76 80 82 84 86 83 81 74 82 83 82 82 80 73 61 71 76 71 66 64 65 65 62 61 64 71

GFSNGP_sfc_temp_165.txt.gz
Temp
67 70 70 69 73 72 62 66 56 61 64 66 71 74 74 74 75 75 74 73 72 70 68 69 69 71 73 73 73 75 74 73 71 71 72 73 72 74 77 75 76 76 75 74
62 72 74 69 71 72 70 71 66 69 65 74 74 74 75 76 75 73 73 74 73 70 71 68 69 70 72 73 73 72 72 70 71 70 70 69 69 68 69 72 72 73 74 74
54 66 67 57 67 69 70 68 63 59 67 73 72 75 74 74 75 74 74 74 72 70 69 67 67 68 69 70 72 71 69 69 69 68 69 69 69 67 67 69 72 73 73 73
52 56 49 64 72 76 72 75 75 74 73 76 75 74 76 78 74 75 75 72 72 70 68 67 67 66 67 69 68 67 66 68 68 67 68 68 68 67 67 70 71 71 72 72
50 50 59 66 71 70 63 65 77 77 77 78 78 76 73 80 78 75 74 72 71 69 69 68 67 67 66 65 65 65 65 65 66 67 65 65 65 65 66 69 71 70 71 71
52 49 47 62 72 78 73 57 77 77 76 76 76 64 65 78 80 77 76 74 72 70 69 68 68 68 66 65 64 64 65 65 66 67 65 65 66 66 67 69 69 69 68 67
57 53 60 72 74 76 59 59 71 72 76 74 68 69 73 77 77 76 75 74 73 71 68 68 69 71 68 67 66 68 68 68 67 67 67 67 67 67 67 68 68 66 64 63
55 53 50 73 73 65 66 68 73 74 75 73 73 74 75 76 74 74 71 72 72 69 69 70 71 71 71 69 69 69 68 67 67 67 67 67 66 67 66 67 66 64 63 61
52 54 63 68 71 69 76 71 74 73 76 76 75 73 73 72 73 72 71 71 72 69 68 68 68 70 68 68 69 67 66 65 66 66 66 67 66 65 64 65 64 63 62 61
52 59 58 62 71 71 72 72 73 82 79 79 75 74 73 73 71 71 72 69 70 69 66 65 66 67 67 68 67 66 64 64 64 64 64 64 64 64 64 63 62 62 61 61
51 56 58 67 63 66 66 74 76 78 81 79 77 74 74 71 69 69 69 69 68 67 65 64 65 65 66 68 67 66 65 65 61 62 62 57 52 51 56 52 52 62 61 62
48 56 53 56 64 68 65 66 69 79 78 79 77 74 73 71 71 69 67 68 67 67 65 64 65 64 65 66 66 64 63 65 64 63 61 59 58 55 48 47 46 45 47 55
55 61 60 61 64 69 66 66 69 81 80 77 78 76 75 71 70 69 69 68 66 65 65 65 64 63 65 66 65 65 64 63 64 64 65 63 61 60 54 51 47 45 44 46
63 61 58 61 60 64 65 67 67 80 81 80 78 77 75 73 69 69 68 67 67 67 65 65 64 64 65 66 67 66 62 61 63 62 64 64 65 64 62 58 55 54 48 49
62 63 62 63 63 63 66 66 65 66 78 77 78 76 73 71 69 68 68 70 69 67 65 64 64 64 65 65 64 65 63 62 62 64 65 64 64 65 65 64 62 59 54 49
67 68 69 62 62 64 64 65 65 60 76 71 70 73 72 71 69 68 67 67 65 64 64 64 63 65 65 65 65 65 63 65 64 63 62 62 62 62 61 64 62 60 60 57
62 62 65 65 62 61 62 64 64 66 74 72 71 72 71 69 68 66 66 67 67 66 65 65 64 66 66 66 65 64 64 63 65 64 63 64 63 63 61 62 60 60 60 58
67 66 65 64 60 60 61 63 66 75 74 72 72 71 69 67 65 64 65 66 66 65 65 66 67 66 66 67 67 67 66 64 64 64 65 64 64 64 63 63 62 62 59 56
70 66 67 67 63 64 61 64 76 75 73 73 71 69 68 67 67 65 65 65 64 63 64 67 68 68 66 68 68 67 69 67 65 66 66 65 65 65 64 64 64 63 60 59
69 71 70 67 69 64 64 64 67 70 73 73 71 69 67 66 66 66 65 64 65 66 67 67 67 67 67 68 69 65 66 69 68 65 65 65 65 65 64 63 67 64 63 62
68 70 71 71 67 66 63 62 63 62 64 65 69 69 68 67 67 66 64 64 67 68 68 66 66 65 66 67 67 65 67 67 67 66 65 65 65 65 65 66 67 67 67 65
69 71 73 72 64 64 64 63 63 63 63 63 64 64 69 67 67 66 67 68 68 62 66 68 67 67 67 68 67 67 68 68 67 66 65 66 65 66 66 66 66 69 67 66
71 73 73 73 66 68 68 66 65 64 63 65 63 63 64 72 72 68 67 71 70 66 70 69 67 65 65 66 67 67 68 68 67 67 67 66 66 66 66 70 70 71 69 69
68 70 72 73 68 64 63 64 65 65 65 67 71 67 61 65 72 76 75 69 66 64 72 72 67 62 62 65 65 65 66 67 67 68 68 62 67 67 68 69 67 67 67 67
67 65 71 71 64 65 65 65 64 62 65 65 64 64 63 67 75 77 78 77 63 64 69 62 62 60 67 67 67 66 66 66 67 68 71 70 67 67 65 64 61 62 65 66
62 64 64 62 63 62 68 67 68 68 66 63 65 67 69 73 78 74 72 67 64 63 66 67 66 67 71 69 69 69 68 68 68 67 66 67 64 62 61 61 61 61 61 61
61 57 60 61 60 61 62 60 64 63 67 69 69 68 69 67 68 70 64 66 67 67 68 72 67 64 66 67 68 69 65 64 61 65 67 63 61 62 62 62 62 62 61 61

GFSNGP_sfc_temp_168.txt.gz
Temp
59 65 65 65 66 66 57 56 53 60 60 63 68 70 71 72 72 71 70 69 67 66 65 66 67 68 70 71 71 72 71 71 72 72 72 71 70 69 70 70 73 72 70 68
58 66 67 65 67 68 67 63 61 61 60 69 72 73 71 73 72 70 69 70 69 68 67 66 66 67 69 70 70 70 70 69 71 69 69 70 69 68 68 68 68 69 69 70
48 58 60 53 64 67 67 64 63 58 63 67 67 72 71 71 72 70 70 70 69 68 66 65 65 66 67 68 68 68 68 67 68 68 68 68 69 68 68 67 67 67 68 71
49 51 44 59 68 72 69 71 67 68 69 69 73 75 75 75 73 71 72 70 68 67 65 64 64 64 65 66 65 66 66 66 68 67 67 68 68 68 67 67 67 66 68 70
48 45 54 61 65 67 65 65 72 71 71 71 73 71 66 75 76 74 72 71 69 67 65 64 64 64 63 63 63 64 65 67 67 66 67 67 65 65 65 65 65 64 67 70
47 45 43 57 69 71 70 56 72 74 73 67 71 62 69 72 78 75 72 70 68 67 66 65 65 64 62 61 62 62 63 64 65 66 66 66 66 65 64 65 67 68 67 66
47 45 53 60 71 70 55 57 72 74 71 69 70 72 71 72 72 72 71 69 69 68 66 64 65 65 63 63 63 64 65 65 65 65 64 64 64 65 64 67 66 64 63 62
47 46 46 62 67 58 60 65 72 72 71 72 67 68 72 70 69 69 68 69 69 66 65 65 65 65 64 65 66 66 66 67 67 65 65 65 65 66 66 66 64 63 61 61
48 48 56 59 58 60 63 60 65 68 73 71 70 70 70 69 70 69 70 69 69 67 65 64 65 66 66 65 66 64 64 65 65 66 65 66 65 64 64 64 64 63 62 60
50 54 55 59 60 60 63 64 65 69 73 73 71 71 69 69 69 69 69 68 66 65 63 61 64 65 64 67 67 64 61 64 64 63 61 60 60 62 63 63 62 62 61 60
48 53 57 59 60 59 61 66 67 67 72 73 72 71 70 68 66 68 66 65 65 63 62 61 62 63 64 65 66 65 62 63 62 61 59 54 51 52 55 51 54 62 62 61
46 53 54 56 60 61 59 62 65 64 64 71 74 71 70 68 67 66 64 63 62 62 62 62 62 62 62 63 65 65 63 62 60 56 58 54 55 53 48 47 46 46 49 53
53 56 56 60 62 63 60 63 66 64 63 65 72 72 71 68 67 65 66 66 65 63 62 62 61 60 62 63 65 64 62 63 63 60 57 57 58 58 55 52 47 44 45 48
59 57 55 59 58 62 63 66 66 66 69 71 73 73 72 69 66 67 67 66 64 63 62 61 60 61 62 64 67 64 64 60 60 60 60 59 59 59 57 55 54 53 48 48
60 60 60 60 60 61 63 64 64 63 64 67 69 71 69 67 66 67 63 65 65 63 61 61 61 61 62 63 65 63 60 60 60 63 60 60 60 61 58 57 56 57 53 48
60 60 60 58 61 62 63 64 61 63 63 63 67 68 68 69 66 64 64 65 63 61 60 61 61 62 63 63 62 62 61 61 61 60 59 59 59 59 59 58 59 58 57 57
56 55 58 58 59 60 62 64 64 64 63 62 65 66 65 65 65 64 63 63 63 61 61 61 61 63 63 63 62 61 60 61 62 60 60 60 60 60 59 60 58 59 58 55
64 63 61 59 59 60 60 62 63 62 62 63 65 67 65 64 65 63 62 61 61 60 61 62 63 63 62 63 63 62 61 61 61 60 60 60 60 60 59 58 59 58 57 55
63 63 61 62 60 59 60 60 61 62 64 65 63 67 67 66 65 63 61 60 60 60 61 63 64 64 63 64 64 62 62 61 61 61 61 60 61 60 59 59 59 59 58 56
61 65 65 62 63 62 60 62 62 64 65 65 65 65 64 63 62 61 60 59 63 66 63 63 64 62 63 63 65 62 62 63 62 61 61 61 61 60 60 57 60 60 59 58
62 66 66 63 63 63 63 62 62 61 63 67 66 66 64 62 62 60 58 59 61 63 64 64 65 63 62 63 63 62 62 62 62 61 61 61 60 61 62 61 61 61 61 61
66 65 66 64 62 61 62 63 62 62 62 63 63 62 64 63 62 63 65 67 64 60 64 64 63 63 63 65 62 62 62 63 62 61 60 61 61 62 62 62 63 62 63 60
66 63 64 62 61 61 63 63 61 62 63 63 62 63 63 68 67 65 62 65 65 61 66 66 64 62 62 63 62 62 63 64 62 61 61 61 62 62 62 63 62 65 64 65
63 65 63 62 62 60 60 63 67 64 68 65 65 64 63 62 63 67 69 63 62 59 65 66 64 62 60 61 61 62 62 62 62 62 60 58 62 62 63 63 62 61 62 61
62 64 61 61 60 59 61 64 67 62 60 61 62 61 61 60 63 65 67 68 58 60 62 59 60 60 61 62 62 61 61 61 63 63 62 62 65 62 61 61 61 61 60 60
59 58 58 59 59 59 58 59 58 60 58 58 59 60 60 61 61 62 63 62 62 61 64 63 65 63 63 64 64 64 62 61 62 63 63 62 60 59 59 58 58 58 59 59
59 55 58 58 58 59 60 57 58 57 59 59 57 58 60 61 61 62 60 62 62 62 62 61 60 60 62 63 64 64 62 58 53 58 59 58 58 59 59 58 58 58 58 59

GFSNGP_sfc_temp_171.txt.gz
Temp
59 63 64 62 62 61 56 55 54 56 56 62 64 64 69 68 68 68 67 66 65 64 64 65 66 67 69 69 69 69 68 67 69 71 72 71 71 69 69 69 70 70 69 68
57 62 64 62 64 63 62 60 57 58 59 65 67 66 67 68 69 68 67 67 67 65 65 65 66 67 68 69 69 69 69 70 71 71 70 70 71 70 69 68 68 68 69 68
48 57 58 52 61 62 61 61 61 55 62 64 64 66 67 68 71 69 68 68 66 65 64 64 65 65 65 66 67 67 68 69 69 68 69 68 69 69 70 69 68 67 67 68
49 49 43 58 62 67 66 65 65 65 65 66 67 71 69 73 72 69 70 68 66 64 64 63 63 63 64 64 65 66 66 66 67 67 66 66 68 68 69 69 69 67 66 67
49 46 52 58 63 65 63 62 67 67 69 69 69 68 64 71 73 72 71 69 67 65 64 63 63 63 62 62 63 66 66 67 67 68 67 67 67 67 66 65 65 64 65 66
44 44 44 55 64 67 65 55 68 70 67 66 68 60 68 71 73 71 70 67 65 64 63 62 62 61 61 61 62 61 62 64 65 65 66 66 65 65 65 66 66 66 67 66
44 44 51 58 62 64 54 53 60 66 67 65 65 72 76 73 70 69 69 67 66 66 65 63 62 61 60 60 61 63 63 64 64 64 63 63 64 65 65 66 65 63 62 61
42 41 44 60 61 57 55 54 60 61 62 62 70 68 71 73 67 67 66 65 67 65 64 63 63 62 61 62 64 65 66 67 66 64 65 65 65 63 63 65 64 62 61 60
46 46 55 56 55 58 57 56 58 58 63 62 66 67 69 69 66 67 67 67 67 65 62 63 63 64 63 64 64 64 63 64 65 65 65 65 65 65 64 65 63 61 61 59
48 50 55 58 59 59 60 59 62 63 64 66 67 66 65 67 66 67 67 66 66 64 62 62 63 64 64 65 64 64 63 62 64 62 60 60 61 62 63 63 62 62 60 59
48 51 54 58 59 59 60 62 63 64 65 64 66 66 68 67 66 67 67 66 66 63 62 61 62 62 63 63 63 63 63 61 61 60 58 55 51 52 56 53 53 60 61 59
45 54 52 54 58 61 59 59 61 61 63 64 67 64 67 67 67 66 65 64 63 61 61 60 61 61 62 62 62 62 61 61 59 57 53 55 55 53 49 47 46 46 47 54
54 58 55 57 60 62 60 60 62 62 62 61 64 67 65 65 66 64 65 64 63 62 61 61 60 60 61 61 62 64 62 61 57 55 54 53 54 55 54 52 47 45 44 47
58 57 53 57 56 61 61 63 63 64 64 64 66 65 66 64 63 65 64 65 64 62 61 60 59 59 61 62 65 65 61 57 59 57 56 55 56 58 57 55 53 52 48 48
58 58 59 59 58 59 60 61 62 62 63 65 66 64 64 62 62 65 63 64 64 62 60 59 59 59 61 62 66 64 62 59 59 59 60 57 58 57 55 55 54 53 52 49
58 59 58 55 57 59 59 60 60 60 63 64 64 64 64 63 62 62 63 63 61 60 59 59 59 60 61 61 60 60 60 60 59 60 59 58 58 58 57 56 55 55 57 56
51 51 54 54 55 57 58 60 61 60 62 61 62 64 64 64 61 60 61 64 64 61 60 60 60 61 61 61 61 60 59 59 60 59 58 58 58 58 57 58 59 58 55 55
60 58 59 60 58 57 59 61 62 62 60 62 63 63 62 61 61 60 60 59 59 58 59 60 61 61 61 61 61 60 60 59 59 59 59 58 58 58 58 58 58 57 56 54
58 59 60 61 60 58 59 61 62 63 62 63 62 62 63 62 60 60 60 61 59 58 59 60 62 62 61 62 62 60 60 60 59 59 59 58 58 58 58 57 57 57 57 55
57 59 60 60 60 58 58 60 61 62 63 63 63 62 61 60 59 59 61 61 63 64 60 61 62 61 60 62 64 61 61 61 60 59 59 58 58 58 57 54 58 58 58 57
57 59 60 60 59 60 61 61 61 61 63 63 62 61 62 60 60 61 56 58 59 60 62 62 62 61 61 61 62 60 60 59 59 59 60 59 58 58 58 59 58 58 58 58
57 60 60 60 60 59 61 62 62 62 61 62 63 63 61 60 58 58 61 62 59 57 60 60 62 62 62 64 61 60 60 60 60 58 57 58 57 58 58 58 59 60 59 57
61 63 62 59 60 59 61 61 62 62 61 62 62 61 63 63 61 59 58 59 60 58 62 62 62 60 61 61 60 60 61 60 60 59 58 59 59 58 59 59 59 60 58 58
60 60 60 61 61 60 58 59 61 62 62 63 62 62 60 58 59 61 64 58 58 58 62 62 60 59 58 59 59 59 60 59 59 58 59 53 58 59 58 59 59 59 59 58
59 60 60 60 60 58 58 59 60 58 60 60 59 61 61 60 61 61 64 63 58 58 62 58 58 58 60 60 60 60 60 59 59 59 59 59 58 58 61 59 59 58 58 58
56 57 58 59 58 58 57 58 58 58 59 58 58 60 61 60 60 61 63 61 63 58 60 60 60 60 62 62 62 62 61 60 59 57 57 58 58 57 58 58 57 56 57 57
56 53 57 58 58 58 57 57 58 58 58 59 59 60 62 62 61 61 59 62 60 61 60 60 60 58 60 60 58 57 55 54 51 55 55 58 59 58 57 56 56 56 56 56